Starlink 32320

operational
NORAD ID: 61638 Int'l Des: 2024-191 Owner: SPXS Country: US Constellation: starlink
LEOCIRCULAR

关于 Starlink 32320

正在加载描述...

实时位置

正在加载3D地球...

即将过境

高度历史

Altitude vs Time

uPlot chart will show altitude changes over time

两行轨道根数

1 61638U 24191T 26034.24541326 .00002351 00000-0 94896-4 0 9994
2 61638 43.0018 352.9172 0000482 149.7426 210.3454 15.27592796 72223
Epoch: Feb 3, 2026 • Age: 13 hours

当前状态

高度 484.2 km
速度 7.63 km/s
星下点 33.14°N, 20.04°W
发射日期 Oct 23, 2024
运行时间 1.2 years
类型 internet

技术详情

分类 Payload
质量 730.00 kg
干质量 700.00 kg
总质量 730.00 kg
长度 0.30 m
直径 4.10 m
跨度 29.00 m
形状 Box + pan
制造商 SPXS
平台类型 Starlink V2M
阶段状态 In Orbit
所有者/国家 SPXS/US

大型星座

Loading constellations...